• In Belarus
  • List of Countries
  • For 7 days
  • Water Temperature
  • Weather Map
  • Weather Widgets
  • user-avatar
    Login

    Hourly Weather Verhniy Aradirih

    Today, 30 May, Saturday

    Time Temperature Precipitation Wind Pressure Humidity
    00:00 +12°C° 0.1 mm 3 mps 603 mmHg 67%
    01:00 +12°C° 0 mm 3 mps 603 mmHg 69%
    02:00 +11°C° 0 mm 3 mps 603 mmHg 70%
    03:00 +11°C° 0 mm 3 mps 603 mmHg 73%
    04:00 +11°C° 0 mm 3 mps 603 mmHg 75%
    05:00 +11°C° 0 mm 3 mps 604 mmHg 78%
    06:00 +12°C° 0 mm 3 mps 605 mmHg 80%
    07:00 +12°C° 0 mm 3 mps 605 mmHg 78%
    08:00 +12°C° 0 mm 3 mps 606 mmHg 76%
    09:00 +13°C° 0 mm 3 mps 606 mmHg 74%
    10:00 +13°C° 0.1 mm 3 mps 606 mmHg 73%
    11:00 +13°C° 0.1 mm 3 mps 607 mmHg 71%
    12:00 +14°C° 0.1 mm 3 mps 607 mmHg 70%
    13:00 +13°C° 0.2 mm 3 mps 607 mmHg 72%
    14:00 +13°C° 0.2 mm 3 mps 607 mmHg 74%
    15:00 +12°C° 0.2 mm 3 mps 607 mmHg 76%
    16:00 +13°C° 0.1 mm 2 mps 606 mmHg 78%
    17:00 +12°C° 0.1 mm 2 mps 606 mmHg 81%
    18:00 +10°C° 0.1 mm 2 mps 606 mmHg 83%
    19:00 +10°C° 0 mm 2 mps 606 mmHg 85%
    20:00 +10°C° 0 mm 1 mps 606 mmHg 86%
    21:00 +9°C° 0 mm 1 mps 606 mmHg 88%
    22:00 +9°C° 0 mm 1 mps 606 mmHg 87%
    23:00 +9°C° 0 mm 1 mps 606 mmHg 86%

    Tomorrow, 31 May, Sunday

    Time Temperature Precipitation Wind Pressure Humidity
    00:00 +9°C° 0 mm 1 mps 606 mmHg 85%
    01:00 +9°C° 0 mm 1 mps 606 mmHg 85%
    02:00 +9°C° 0 mm 1 mps 606 mmHg 85%
    03:00 +8°C° 0 mm 1 mps 606 mmHg 85%
    04:00 +8°C° 0 mm 1 mps 606 mmHg 85%
    05:00 +8°C° 0 mm 1 mps 606 mmHg 85%
    06:00 +8°C° 0 mm 1 mps 607 mmHg 85%
    07:00 +8°C° 0 mm 2 mps 607 mmHg 84%
    08:00 +8°C° 0 mm 2 mps 607 mmHg 82%
    09:00 +9°C° 0 mm 2 mps 607 mmHg 80%
    10:00 +9°C° 0 mm 2 mps 607 mmHg 79%
    11:00 +10°C° 0 mm 2 mps 608 mmHg 78%
    12:00 +12°C° 0 mm 2 mps 608 mmHg 77%
    13:00 +12°C° 0 mm 2 mps 608 mmHg 77%
    14:00 +12°C° 0 mm 2 mps 607 mmHg 77%
    15:00 +12°C° 0 mm 2 mps 607 mmHg 77%
    16:00 +12°C° 0 mm 2 mps 607 mmHg 79%
    17:00 +10°C° 0 mm 2 mps 607 mmHg 82%
    18:00 +10°C° 0 mm 2 mps 607 mmHg 84%
    19:00 +10°C° 0 mm 1 mps 606 mmHg 87%
    20:00 +9°C° 0 mm 1 mps 606 mmHg 90%
    21:00 +7°C° 0 mm 0 mps 605 mmHg 93%
    22:00 +6°C° 0 mm 0 mps 605 mmHg 92%
    23:00 +7°C° 0 mm 1 mps 605 mmHg 90%

    Day after tomorrow, 1 June, Monday

    Time Temperature Precipitation Wind Pressure Humidity
    00:00 +7°C° 0 mm 1 mps 605 mmHg 88%
    01:00 +7°C° 0 mm 1 mps 604 mmHg 87%
    02:00 +7°C° 0 mm 1 mps 604 mmHg 86%
    03:00 +7°C° 0 mm 1 mps 604 mmHg 85%
    04:00 +8°C° 0 mm 1 mps 604 mmHg 81%
    05:00 +9°C° 0 mm 1 mps 605 mmHg 78%
    06:00 +10°C° 0 mm 1 mps 605 mmHg 75%
    07:00 +12°C° 0 mm 1 mps 606 mmHg 68%
    08:00 +13°C° 0 mm 2 mps 606 mmHg 62%
    09:00 +15°C° 0 mm 2 mps 607 mmHg 56%
    10:00 +16°C° 0 mm 2 mps 607 mmHg 53%
    11:00 +17°C° 0 mm 2 mps 607 mmHg 51%
    12:00 +18°C° 0 mm 2 mps 608 mmHg 48%
    13:00 +19°C° 0 mm 2 mps 607 mmHg 48%
    14:00 +19°C° 0 mm 2 mps 607 mmHg 48%
    15:00 +19°C° 0 mm 2 mps 607 mmHg 48%
    16:00 +18°C° 0.1 mm 2 mps 606 mmHg 53%
    17:00 +17°C° 0.1 mm 2 mps 606 mmHg 59%
    18:00 +16°C° 0.1 mm 1 mps 605 mmHg 64%
    19:00 +14°C° 0 mm 1 mps 605 mmHg 68%
    20:00 +12°C° 0 mm 1 mps 604 mmHg 71%
    21:00 +11°C° 0 mm 1 mps 603 mmHg 74%
    22:00 +10°C° 0 mm 1 mps 603 mmHg 72%
    23:00 +10°C° 0 mm 1 mps 603 mmHg 70%

    2 June, Tuesday

    Time Temperature Precipitation Wind Pressure Humidity
    00:00 +10°C° 0 mm 1 mps 602 mmHg 68%
    01:00 +9°C° 0 mm 2 mps 602 mmHg 65%
    02:00 +9°C° 0 mm 2 mps 602 mmHg 63%
    03:00 +8°C° 0 mm 2 mps 602 mmHg 60%
    04:00 +9°C° 0 mm 2 mps 602 mmHg 61%
    05:00 +10°C° 0 mm 2 mps 602 mmHg 62%
    06:00 +12°C° 0 mm 2 mps 603 mmHg 63%
    07:00 +15°C° 0 mm 2 mps 604 mmHg 56%
    08:00 +18°C° 0 mm 1 mps 605 mmHg 48%
    09:00 +20°C° 0 mm 1 mps 606 mmHg 41%
    10:00 +21°C° 0 mm 1 mps 606 mmHg 38%
    11:00 +21°C° 0 mm 2 mps 606 mmHg 36%
    12:00 +22°C° 0 mm 3 mps 607 mmHg 34%
    13:00 +22°C° 0 mm 3 mps 606 mmHg 34%
    14:00 +22°C° 0 mm 3 mps 606 mmHg 35%
    15:00 +22°C° 0 mm 3 mps 606 mmHg 35%
    16:00 +20°C° 0.1 mm 3 mps 605 mmHg 45%
    17:00 +19°C° 0.1 mm 2 mps 605 mmHg 55%
    18:00 +17°C° 0.1 mm 2 mps 604 mmHg 65%
    19:00 +15°C° 0 mm 1 mps 604 mmHg 70%
    20:00 +14°C° 0 mm 1 mps 603 mmHg 76%
    21:00 +12°C° 0 mm 1 mps 602 mmHg 81%
    22:00 +11°C° 0 mm 1 mps 602 mmHg 80%
    23:00 +11°C° 0 mm 1 mps 602 mmHg 78%

    3 June, Wednesday

    Time Temperature Precipitation Wind Pressure Humidity
    00:00 +11°C° 0 mm 1 mps 602 mmHg 77%
    01:00 +10°C° 0 mm 1 mps 602 mmHg 76%
    02:00 +10°C° 0 mm 1 mps 601 mmHg 75%
    03:00 +9°C° 0 mm 2 mps 601 mmHg 74%
    04:00 +11°C° 0 mm 1 mps 602 mmHg 72%
    05:00 +12°C° 0 mm 1 mps 602 mmHg 69%
    06:00 +13°C° 0 mm 1 mps 603 mmHg 66%
    07:00 +15°C° 0 mm 1 mps 603 mmHg 61%
    08:00 +16°C° 0 mm 1 mps 604 mmHg 56%
    09:00 +18°C° 0 mm 2 mps 605 mmHg 51%
    10:00 +19°C° 0 mm 2 mps 605 mmHg 50%
    11:00 +20°C° 0 mm 2 mps 605 mmHg 49%
    12:00 +21°C° 0 mm 2 mps 606 mmHg 48%
    13:00 +20°C° 0.6 mm 2 mps 605 mmHg 50%
    14:00 +20°C° 0.6 mm 2 mps 605 mmHg 51%
    15:00 +20°C° 0.6 mm 3 mps 605 mmHg 52%
    16:00 +19°C° 0.5 mm 2 mps 605 mmHg 57%
    17:00 +18°C° 0.5 mm 2 mps 605 mmHg 62%
    18:00 +19°C° 0.5 mm 1 mps 604 mmHg 67%
    19:00 +16°C° 0 mm 1 mps 604 mmHg 69%
    20:00 +14°C° 0 mm 2 mps 603 mmHg 71%
    21:00 +13°C° 0 mm 2 mps 603 mmHg 74%
    22:00 +12°C° 0 mm 2 mps 602 mmHg 70%
    23:00 +12°C° 0 mm 2 mps 602 mmHg 67%

    4 June, Thursday

    Time Temperature Precipitation Wind Pressure Humidity
    00:00 +10°C° 0 mm 2 mps 602 mmHg 63%
    01:00 +10°C° 0 mm 2 mps 601 mmHg 63%
    02:00 +10°C° 0 mm 2 mps 601 mmHg 62%
    03:00 +10°C° 0 mm 2 mps 601 mmHg 61%
    04:00 +12°C° 0 mm 2 mps 602 mmHg 62%
    05:00 +13°C° 0 mm 2 mps 602 mmHg 62%
    06:00 +13°C° 0 mm 1 mps 603 mmHg 63%
    07:00 +15°C° 0 mm 2 mps 604 mmHg 58%
    08:00 +17°C° 0 mm 2 mps 605 mmHg 53%
    09:00 +19°C° 0 mm 2 mps 606 mmHg 47%
    10:00 +19°C° 0.1 mm 2 mps 606 mmHg 50%
    11:00 +19°C° 0.1 mm 3 mps 606 mmHg 52%
    12:00 +19°C° 0.1 mm 3 mps 606 mmHg 54%
    13:00 +19°C° 0.5 mm 3 mps 606 mmHg 57%
    14:00 +18°C° 0.5 mm 3 mps 606 mmHg 59%
    15:00 +18°C° 0.5 mm 3 mps 606 mmHg 61%
    16:00 +17°C° 0.3 mm 3 mps 606 mmHg 67%
    17:00 +15°C° 0.3 mm 2 mps 606 mmHg 73%
    18:00 +14°C° 0.3 mm 2 mps 605 mmHg 79%
    19:00 +13°C° 0.1 mm 2 mps 605 mmHg 82%
    20:00 +12°C° 0.1 mm 1 mps 605 mmHg 85%
    21:00 +10°C° 0.1 mm 0 mps 605 mmHg 88%
    22:00 +10°C° 0 mm 0 mps 605 mmHg 87%
    23:00 +11°C° 0 mm 1 mps 606 mmHg 86%
    Show more